Location: Banff
(51.1667°N, 115.5667°W)
Time: 11:31:31
(UTC+00:00)

Vanguard 1 Rocket - Pass Details

Date: 05 December 2020
Orbit: 655 x 4222 km, 34.3° (Epoch: 23 January)

Event Time Altitude Azimuth Distance (km) Brightness Sun altitude
Rises 07:15:14 0° 225° (SW) 7,633 - -61.1°
Reaches altitude 10° 07:20:29 10° 219° (SW) 6,936 - -61.2°
Maximum altitude 07:42:42 43° 158° (SSE) 5,153 - -61.2°
Exits shadow 07:56:56 24° 108° (ESE) 5,741 11.2 -60.9°
Drops below altitude 10° 08:03:01 10° 97° (E) 6,424 11.7 -60.7°
Sets 08:07:34 0° 91° (E) 7,059 12.0 -60.5°
